Tracking 25405 objects as of 26-Jan-2022
HD Live streaming from Space Station
objects crossing your sky now

STARLINK-1291

Track STARLINK-1291 now!
10-day predictions
STARLINK-1291 is classified as:


NORAD ID: 45393
Int'l Code: 2020-019AK
Perigee: 553.3 km
Apogee: 555.4 km
Inclination: 53.1 °
Period: 95.6 minutes
Semi major axis: 6925 km
RCS: Unknown
Launch date: March 18, 2020
Source: United States (US)
Launch site: AIR FORCE EASTERN TEST RANGE (AFETR)
aabbcc
Your satellite tracking list
Your tracking list is empty




NASA's NSSDC Master Catalog

Two Line Element Set (TLE):
1 45393U 20019AK  22026.50887042  .00000954  00000-0  82932-4 0  9998
2 45393  53.0547  54.6606 0001473  67.1842 292.9303 15.06402974103202
Source of the keplerian elements: AFSPC